Flag for U.S.A. Weather past 2 weeks in Livonia, Michigan, U.S.A.

Now
70 °F

Overcast.


Feels Like: 76 °F
Forecast: 57 / 78 °F
Wind: 10 mph from Southwest

Location: Detroit Metropolitan Wayne County Airport

Current Time: Jul 25, 2014 at 12:10:59 PM

Latest Report: Jul 25, 2014 at 10:53 AM


Visibility: 10 mi

Pressure: 30.09 "Hg

Humidity: 57%

Dew point: 54 °F

Location of LivoniaLocation

Historic Weather in Livonia — Graph

°F

Livonia temperature yesterday

Maximum temperature yesterday: 76 °F (at 6:53 PM)
Minimum temperature yesterday: 57 °F (at 5:53 AM)
Average temperature yesterday: 67 °F

Past Weeks' High & Low Weather Summary

 TemperatureHumidityPressure
High86 °F (Jul 22, 12:53 PM)100% (Jul 20, 7:53 AM)30.24 "Hg (Jul 20, 7:53 AM)
Low54 °F (Jul 16, 5:53 AM)33% (Jul 17, 5:53 PM)29.71 "Hg (Jul 15, 3:53 AM)
Average70 °F66%30.03 "Hg
* Reported Jul 10 10:53 AM — Jul 25 10:53 AM, Livonia, Weather by CustomWeather, © 2014

Note: Actual official high and low records may vary slightly from our data, if they occured in-between our weather recording intervals... More about our weather records

Advertising

Livonia weather history for previous 24 hours

 ConditionsComfort  
Time TempWeatherWind HumidityBarometerVisibility
10:53 AM
Jul 25
70 °FOvercast.10 mph57%30.09 "Hg10 mi
9:53 AM68 °FBroken clouds.8 mph59%30.10 "Hg10 mi
8:53 AM64 °FPartly sunny.10 mph65%30.10 "Hg10 mi
7:53 AM59 °FScattered clouds.6 mph81%30.08 "Hg10 mi
6:53 AM55 °FPartly cloudy.5 mph87%30.09 "Hg10 mi
5:53 AM57 °FPartly cloudy.6 mph83%30.08 "Hg10 mi
4:53 AM57 °FPassing clouds.3 mph83%30.07 "Hg10 mi
3:53 AM58 °FPassing clouds.5 mph84%30.06 "Hg10 mi
2:53 AM59 °FPassing clouds.3 mph78%30.05 "Hg10 mi
1:53 AM61 °FPassing clouds.No wind72%30.06 "Hg10 mi
12:53 AM63 °FPassing clouds.3 mph70%30.06 "Hg10 mi
11:53 PM
Jul 24
66 °FPassing clouds.No wind63%30.07 "Hg10 mi
10:53 PM68 °FPassing clouds.6 mph55%30.06 "Hg10 mi
9:53 PM69 °FBroken clouds.3 mph53%30.06 "Hg10 mi
8:53 PM71 °FPartly sunny.5 mph45%30.05 "Hg10 mi
7:53 PM74 °FScattered clouds.3 mph40%30.04 "Hg10 mi
6:53 PM76 °FScattered clouds.7 mph37%30.03 "Hg10 mi
5:53 PM75 °FScattered clouds.No wind37%30.05 "Hg10 mi
4:53 PM72 °FPartly sunny.7 mph43%30.06 "Hg10 mi
3:53 PM75 °FScattered clouds.8 mph37%30.08 "Hg10 mi
2:53 PM75 °FPartly sunny.7 mph39%30.09 "Hg10 mi
1:53 PM75 °FPassing clouds.9 mph37%30.10 "Hg10 mi
12:53 PM72 °FPartly sunny.9 mph41%30.11 "Hg10 mi
Weather by CustomWeather, © 2014

See weather overviewHow to use our weather pages